Location: Unspecified
(0.0000°N, 0.0000°E)
Time: 11:36:50
(UTC+00:00)

JUGNU - Pass Details

Date: 09 December 2017
Orbit: 837 x 864 km, 20.0° (Epoch: 16 January)

Event Time Altitude Azimuth Distance (km) Brightness Sun altitude
Rises 20:41:15 0° 224° (SW) 3,385 ? -38.2°
Reaches altitude 10° 20:46:33 10° 184° (S) 2,444 ? -39.3°
Enters shadow 20:46:55 10° 181° (S) 2,425 ? -39.4°
